Overview Statistics Trail Chart Weather Telemetry Raw packets
 

This is the latest recevied weather packets stored in our database for station/object PA3DZX-13. If no packets are shown the sender has not sent any weather packets the latest 10 day(s).

<< 12 13 14 15 16 17 18 >>
Time Temp. Humidity Pressure Rain* Wind** Luminosity Snow
1788313995 10.56° C 96% 1019.9 hPa 0 mm - - -
1788313093 10° C 95% 1019.8 hPa 0 mm - - -
1788312193 8.89° C 95% 1019.9 hPa 0 mm - - -
1788311292 8.89° C 96% 1020 hPa 0 mm - - -
1788310393 10° C 96% 1020 hPa 0 mm - - -
1788309492 10° C 96% 1020 hPa 0 mm - - -
1788308592 10° C 95% 1020 hPa 0 mm - - -
1788307692 10° C 97% 1020 hPa 0 mm - - -
1788306790 10° C 95% 1020.2 hPa 0 mm - - -
1788305891 10° C 98% 1020.2 hPa 0 mm - - -
1788304990 10° C 96% 1020.1 hPa 0 mm - - -
1788304090 8.89° C 96% 1020.1 hPa 0 mm - - -
1788303189 10° C 95% 1020.5 hPa 0 mm - - -
1788302290 10° C 96% 1020.7 hPa 0 mm - - -
1788301389 10° C 99% 1020.7 hPa 0 mm - - -
1788300488 8.89° C 96% 1020.8 hPa 0 mm - - -
1788299588 10° C 95% 1020.9 hPa 0 mm - - -
1788298689 10° C 96% 1020.8 hPa 0 mm - - -
1788297789 10.56° C 95% 1020.6 hPa 0 mm - - -
1788296888 10.56° C 96% 1020.7 hPa 0 mm - - -
1788295988 10.56° C 95% 1020.5 hPa 0 mm - - -
1788295088 11.67° C 96% 1020.4 hPa 0 mm - - -
1788294184 10.56° C 94% 1020.4 hPa 0 mm - - -
1788293285 11.67° C 96% 1020.3 hPa 0 mm - - -
1788292384 11.67° C 92% 1020.2 hPa 0 mm - - -

* Rain latest hour (hover to see other rain measurements)
** Current wind speed in m/s (hover to see current wind gust speed)